Погода в Каневской

Россия / Краснодарский край     46°05′05″N   38°58′18″E
темп.,
°C
ветер,
м/с
пор.,
м/с
влажн.,
%
обл.,
%
осадки,
мм/ч
давл.,
гПа
погр.,
м
7 мая, пт
пт700:00+12зсз346243 0.0 101259
03:00+10з356916 0.0 101372
06:00+10юз3681100 0.0 1014109
09:00+16зюз577267 0.0 1016622
12:00+19з56585 0.0 10161261
15:00+20з56535 0.0 10171542
18:00+17сз346962 0.0 1017295
21:00+12с117050 0.0 101710
8 мая, сб
сб800:00+12юв22745 0.0 101715
03:00+11юв359310 0.0 101675
06:00+11ююв3683100 0.0 1015133
09:00+17ю4569100 0.0 1015353
12:00+21ю4554100 0.0 1014870
15:00+22ю3454100 0.0 10121168
18:00+21ююв346724 0.0 1011150
21:00+16ююз1175100 0.0 101011
9 мая, вс
вс900:00+14зсз3577100 0.1 101093
03:00+13ссз4891100 0.5 1010341
06:00+10ссз81394100 7.7 1012660
09:00+8ссз71295100 10.4 1015712
12:00+10ссз5882100 1.9 10171141
15:00+11сз587199 2.2 10191258
18:00+13сз47645 0.1 1020584
21:00+9з376667 0.1 1022117
10 мая, пн
пн1000:00+9сз476112 0.0 1022145
03:00+6зсз228767 0.3 102329
06:00+6сз39885 0.1 1023210
09:00+11сз5768100 0.4 10221142
12:00+12сз7960100 0.6 10211740
15:00+10сз71080100 1.7 10211199
18:00+8з51087100 1.1 1019670
21:00+8юз5996100 4.9 1017614
11 мая, вт
вт1100:00+8юз61097100 3.1 1015502
03:00+8ююз71296100 3.8 1014539
06:00+9ююз61097100 0.1 1013465
09:00+9ю81595100 1.3 1013839
12:00+8ююв131995100 6.1 10121045
15:00+8ююв131993100 20.7 10141285
18:00+8юв111793100 9.9 10161262
21:00+8юв71393100 15.4 1017681